Back to catalog

STARLINK-32355

AliveCommunicationsVLEO
NORAD 61634·PAYLOAD·🇺🇸 United States

Launched Oct 23, 2024 from Cape Canaveral Space Force Station

Loading…

Next Passes (next 24 hours)

TLE

FreshSource: CelesTrak SupGP

Epoch: Sep 14, 2026, 14:01 UTC

1 61634C 24191P   26257.58451389  .00022979  00000+0  83211-3 0  2575
2 61634  43.0004 171.5178 0001077 276.5716  10.2901 15.27574213    13

Track STARLINK-32355 in real time with AllMySat

Download on the App Store